Monistrol de Calders





Hora UTC 07:40
Temperatura -0.8 ºC
Humitat 90.0 %
Pressió 1028.4 hPa
Pluja 0.0 mm
Velocitat vent 0.0 km/h
Direcció vent SE

Dades diàries 2020-02-20



Hora UTC (hivern +1h; estiu +2h)
Temperatura (ºC) Humitat (%) Pressió (hPa) Velocitat vent (km/h) Precipitació (mm)
Hora UTC Aire Humitat Pressió Vel. Dir. Vel. Max Dir. Intent. màx 5 min.
00:05 -0.2 89.0 1030.3 1.6 SSE 1.6 0.0
00:05 -0.2 89.0 1030.3 3.2 SSE 3.2 0.0
00:15 -0.2 89.0 1030.2 0.0 SSE 3.2 0.0
00:20 -0.3 89.0 1030.3 0.0 SSE 0.0 0.0
00:25 -0.3 89.0 1030.2 0.0 SSE 0.0 0.0
00:30 -0.3 89.0 1030.2 0.0 SSE 0.0 0.0
00:35 -0.5 89.0 1030.2 0.0 SSE 0.0 0.0
00:40 -0.6 89.0 1030.2 0.0 SSE 0.0 0.0
00:45 -0.6 89.0 1030.2 0.0 SSE 0.0 0.0
00:50 -0.7 89.0 1030.0 0.0 SSE 0.0 0.0
00:55 -0.7 89.0 1030.1 0.0 SSE 0.0 0.0
01:00 -0.8 89.0 1030.0 0.0 SSE 0.0 0.0
01:05 -0.8 89.0 1029.9 4.8 SE 6.4 0.0
01:05 -0.7 89.0 1029.9 6.4 SE 6.4 0.0
01:15 -0.6 90.0 1029.8 0.0 SE 6.4 0.0
01:20 -0.6 89.0 1029.8 0.0 SE 1.6 0.0
01:25 -0.7 89.0 1029.7 0.0 SE 0.0 0.0
01:30 -0.7 89.0 1029.7 0.0 SE 4.8 0.0
01:35 -0.7 90.0 1029.7 0.0 SE 4.8 0.0
01:40 -0.6 90.0 1029.7 0.0 SE 1.6 0.0
01:45 -0.6 90.0 1029.6 0.0 SE 3.2 0.0
01:50 -0.7 89.0 1029.6 0.0 SE 3.2 0.0
01:55 -0.8 89.0 1029.6 0.0 SE 3.2 0.0
02:00 -0.8 90.0 1029.4 1.6 SE 3.2 0.0
02:05 -0.8 89.0 1029.3 0.0 SE 3.2 0.0
02:05 -0.8 89.0 1029.3 0.0 SE 3.2 0.0
02:15 -0.9 89.0 1029.3 0.0 SE 0.0 0.0
02:20 -0.9 89.0 1029.3 0.0 SE 0.0 0.0
02:25 -1.0 90.0 1029.3 0.0 SE 0.0 0.0
02:30 -1.1 90.0 1029.3 0.0 SE 0.0 0.0
02:35 -1.1 90.0 1029.2 0.0 SE 0.0 0.0
02:40 -1.1 90.0 1029.1 0.0 SE 0.0 0.0
02:45 -1.0 90.0 1029.1 0.0 SE 0.0 0.0
02:50 -1.1 90.0 1029.0 0.0 SE 0.0 0.0
02:55 -1.1 89.0 1029.0 0.0 SE 3.2 0.0
03:00 -1.1 90.0 1029.0 0.0 SE 3.2 0.0
03:05 -1.1 90.0 1028.9 0.0 SE 0.0 0.0
03:05 -1.1 90.0 1029.0 0.0 SE 0.0 0.0
03:15 -1.2 90.0 1028.7 0.0 SE 0.0 0.0
03:20 -1.2 90.0 1028.7 0.0 SE 3.2 0.0
03:25 -1.2 90.0 1028.6 0.0 SE 3.2 0.0
03:30 -1.3 90.0 1028.6 0.0 SE 4.8 0.0
03:35 -1.3 90.0 1028.6 0.0 SE 4.8 0.0
03:40 -1.3 90.0 1028.6 0.0 SE 0.0 0.0
03:45 -1.4 90.0 1028.5 0.0 SE 0.0 0.0
03:50 -1.4 90.0 1028.6 0.0 SE 0.0 0.0
03:55 -1.4 90.0 1028.6 0.0 SE 0.0 0.0
04:00 -1.3 90.0 1028.7 0.0 SE 0.0 0.0
04:05 -1.3 90.0 1028.7 0.0 SE 0.0 0.0
04:05 -1.3 90.0 1028.7 0.0 SE 0.0 0.0
04:15 -1.4 90.0 1028.6 0.0 SE 0.0 0.0
04:20 -1.4 90.0 1028.6 0.0 SE 0.0 0.0
04:25 -1.4 90.0 1028.6 0.0 SE 0.0 0.0
04:30 -1.4 90.0 1028.6 0.0 SE 0.0 0.0
04:35 -1.5 90.0 1028.5 0.0 SE 0.0 0.0
04:40 -1.6 90.0 1028.5 0.0 SE 0.0 0.0
04:45 -1.6 90.0 1028.5 0.0 SE 0.0 0.0
04:50 -1.6 90.0 1028.5 0.0 SE 0.0 0.0
04:55 -1.7 90.0 1028.5 0.0 SE 0.0 0.0
05:00 -1.8 90.0 1028.5 0.0 SE 0.0 0.0
05:05 -1.7 90.0 1028.5 0.0 SE 0.0 0.0
05:05 -1.7 90.0 1028.4 0.0 SE 0.0 0.0
05:15 -1.7 90.0 1028.4 0.0 SE 0.0 0.0
05:20 -1.7 90.0 1028.4 0.0 SE 0.0 0.0
05:25 -1.7 90.0 1028.3 0.0 SE 0.0 0.0
05:30 -1.8 90.0 1028.3 0.0 SE 0.0 0.0
05:35 -1.8 90.0 1028.3 0.0 SE 0.0 0.0
05:40 -1.9 90.0 1028.4 0.0 SE 0.0 0.0
05:45 -1.9 90.0 1028.3 0.0 SE 0.0 0.0
05:50 -1.9 90.0 1028.2 0.0 SE 3.2 0.0
05:55 -1.9 90.0 1028.1 0.0 SE 1.6 0.0
06:00 -2.0 90.0 1028.2 0.0 SE 1.6 0.0
06:05 -2.0 90.0 1028.3 0.0 SE 3.2 0.0
06:05 -2.0 90.0 1028.2 0.0 SE 3.2 0.0
06:15 -2.0 90.0 1028.2 3.2 SE 4.8 0.0
06:20 -2.0 90.0 1028.2 0.0 SE 4.8 0.0
06:25 -2.0 90.0 1028.3 0.0 SE 3.2 0.0
06:30 -2.1 90.0 1028.3 0.0 SE 1.6 0.0
06:35 -2.2 90.0 1028.3 0.0 SE 1.6 0.0
06:40 -2.2 90.0 1028.3 0.0 SE 1.6 0.0
06:45 -2.1 90.0 1028.3 0.0 SE 0.0 0.0
06:50 -2.1 90.0 1028.3 0.0 SE 0.0 0.0
06:55 -2.1 90.0 1028.3 0.0 SE 0.0 0.0
07:00 -2.2 90.0 1028.2 0.0 SE 0.0 0.0
07:05 -2.2 90.0 1028.3 0.0 SE 0.0 0.0
07:05 -2.2 90.0 1028.3 0.0 SE 0.0 0.0
07:15 -1.9 90.0 1028.4 0.0 SE 1.6 0.0
07:20 -1.8 90.0 1028.4 0.0 SE 1.6 0.0
07:25 -1.6 90.0 1028.4 0.0 SE 1.6 0.0
07:30 -1.3 90.0 1028.4 0.0 SE 1.6 0.0
07:35 -1.1 90.0 1028.4 0.0 SE 1.6 0.0
07:40 -0.8 90.0 1028.4 0.0 SE 0.0 0.0
Màxima 13.1 90.0 1030.3 6.4 SE 6.4 0.0
Mínima -2.2 89.0 1028.1
Total 0.0